Regional Weather Roundup
Issued by NWS New Orleans/Baton Rouge, LA

Home | Current Version | Previous Version | Text Only | Print | Product List | Glossary On
Versions: 1 2 3 4 5 6 7 8 9 10 11 12 13 14 15 16 17 18 19 20 21 22 23 24 25 26 27 28 29 30 31 32 33 34 35 36 37 38 39 40 41 42 43 44 45 46 47 48 49 50
000
ASUS44 KLIX 311610
RWRLIX
NEW ORLEANS REGIONAL WEATHER ROUNDUP
NATIONAL WEATHER SERVICE NEW ORLEANS LA
1100 AM CDT FRI OCT 31 2014

NOTE: "FAIR" INDICATES FEW OR NO CLOUDS BELOW 12,000 FEET WITH NO
      SIGNIFICANT WEATHER AND/OR OBSTRUCTIONS TO VISIBILITY.
      SKY/WX - SKY CONDITION AND SIGNIFICANT WEATHER.
      TMP - AIR TEMPERATURE.     DP    - DEWPOINT TEMPERATURE.
      RH  - RELATIVE HUMIDITY.   PRES  - PRESSURE.
      HI  - HEAT INDEX.          WCI   - WIND CHILL INDEX.

*  THESE STATIONS ARE NOT NWS OR FAA STATIONS AND ARE NOT UNDER
   NWS QUALITY CONTROL.

LAZ038-040-048-061>063-065>067-069-311700-
SOUTHEAST LOUISIANA

CITY           SKY/WX    TMP DP  RH WIND       PRES   REMARKS
N.O. AUDUBON     N/A     73  51  46 MISG        N/A
N.O. INTL ARPT SUNNY     72  48  42 NW13      30.06F
N.O. LAKEFRONT SUNNY     70  53  54 W13       30.06F
N.O. DOWNTOWN*   N/A     70  46  43 NW6       30.07S
SLIDELL        SUNNY     70  48  45 VRB6      30.04F
BATON ROUGE    SUNNY     69  47  45 NW9       30.09R
BOOTHVILLE     SUNNY     70  49  47 NW10      30.06F
BELLE CHASSE   SUNNY     72  46  39 NW9       30.06S
BOGALUSA*        N/A     72  47  42 N9        30.05F
NEW ROADS*       N/A     67  48  50 NW9       30.10S
GONZALES*        N/A     69  50  50 N8        30.08S
HAMMOND*       SUNNY     72  45  37 NW8G17    30.07F
HOUMA*         SUNNY     70  48  46 NW10      30.08F
PORT FOURCHON* SUNNY     72  48  43 NW9G16    30.11S

$$

MSZ070-080>082-311700-
SOUTHERN MISSISSIPPI

CITY           SKY/WX    TMP DP  RH WIND       PRES   REMARKS
MCCOMB         SUNNY     65  46  50 N12       30.07S
GULFPORT       SUNNY     69  45  41 W8        30.03F
BILOXI         SUNNY     70  45  40 VRB6      30.03F
PASCAGOULA     SUNNY     70  44  39 W7        30.03F
STENNIS ARPT*  SUNNY     70  45  40 NW7       30.04F

$$

COASTAL OBSERVATIONS
LAKE AND NEARSHORE STATIONS

STATION/POSITION TIME  TEMP    WIND        PRES    WAVE
                       AIR SEA DIR/SP/G            HT/PER
                 (UTC) (F)     (DEG/KT/KT) (MB)    (FT/S)
PASCAGOULA       1600   67     250/  7/  9 1016.4
WAVELAND YACHT   1600   67     310/  7/  9 1016.4
GRAND ISLE       1600   68 72  320/  7/  9 1018.7
SOUTHWEST PASS   1600   69 77              1018.4
NEW CANAL        1600   68 69  280/  5/  8 1018.3
SHELL BEACH      1600   67 67  300/  7/ 11 1017.7

OFFSHORE STATIONS

STATION/POSITION TIME  TEMP    WIND        PRES    WAVE
                       AIR SEA DIR/SP/G            HT/PER
                 (UTC) (F)     (DEG/KT/KT) (MB)    (FT/S)
64 S DAUPHIN ISL 1505   69 78  350/ 12/ 14 1017.7    3/ 4

$$




USA.gov is the U.S. government's official web portal to all federal, state and local government web resources and services.